Longville, MN

5:18 PM CDT on May 25, 2018 (GMT -0500)
Longville Municipal

Weather History for KXVG - February, 2018

Change the Weather History Date:

Wednesday, February 14, 2018

  Actual Average (KPWC) Record (KPWC)
Temperature  
Mean Temperature 31 °F -  
Max Temperature 48 °F 25 °F 46 °F (1999)
Min Temperature 14 °F 5 °F -18 °F (2007)
Degree Days  
Heating Degree Days 34    
Moisture  
Dew Point 17 °F    
Average Humidity 59    
Maximum Humidity 86    
Minimum Humidity 27    
Precipitation  
Precipitation 0.00 in - - ()
Sea Level Pressure  
Sea Level Pressure 29.63 in    
Wind  
Wind Speed 4 mph (SSW)    
Max Wind Speed 10 mph    
Max Gust Speed -    
Visibility 10 miles    
Events      
Averages and records for this station are not official NWS values.
T = Trace of Precipitation, MM = Missing Value Source: NWS Daily Summary

Daily Weather History Graph

Daily Weather History Graph

Search for Another Location

Airport or City:

Astronomy

Feb. 14, 2018 Rise Set
Actual Time 7:22 AM CST 5:39 PM CST
Civil Twilight 6:51 AM CST 6:11 PM CST
Nautical Twilight 6:15 AM CST 6:46 PM CST
Astronomical Twilight 5:40 AM CST 7:22 PM CST
Moon 6:49 AM CST (2/14) 4:37 PM CST (2/14)
Length of Visible Light 11h 19m
Length of Day
10h 17m
Waning Crescent, 1% of the Moon is Illuminated
Feb 14
Waning Crescent
Feb 15
New
Feb 23
First Quarter
Mar 1
Full
Mar 9
Last Quarter

Hourly Weather History & Observations

Time (CST) Temp. Windchill Dew Point Humidity Pressure Visibility Wind Dir Wind Speed Gust Speed Precip Events Conditions
12:15 AM 19.4 °F 12.8 °F 15.8 °F 86% 29.83 in 10.0 mi SW 4.6 mph - N/A   Clear
12:35 AM 19.4 °F 14.3 °F 15.8 °F 86% 29.82 in 10.0 mi SSW 3.5 mph - N/A   Clear
12:55 AM 19.4 °F 11.5 °F 14.0 °F 80% 29.81 in 10.0 mi SSW 5.8 mph - N/A   Clear
1:16 AM 19.4 °F 12.8 °F 14.0 °F 80% 29.80 in 10.0 mi South 4.6 mph - N/A   Clear
1:35 AM 19.4 °F - 14.0 °F 80% 29.80 in 10.0 mi Calm Calm - N/A   Clear
1:56 AM 17.6 °F 12.3 °F 14.0 °F 86% 29.80 in 10.0 mi SSW 3.5 mph - N/A   Clear
2:15 AM 17.6 °F 12.3 °F 12.2 °F 79% 29.80 in 10.0 mi SW 3.5 mph - N/A   Clear
2:35 AM 17.6 °F - 12.2 °F 79% 29.80 in 10.0 mi Calm Calm - N/A   Clear
2:56 AM 17.6 °F 10.7 °F 12.2 °F 79% 29.79 in 10.0 mi South 4.6 mph - N/A   Clear
3:15 AM 17.6 °F 10.7 °F 12.2 °F 79% 29.79 in 10.0 mi South 4.6 mph - N/A   Clear
3:35 AM 17.6 °F 10.7 °F 12.2 °F 79% 29.77 in 10.0 mi South 4.6 mph - N/A   Clear
3:55 AM 19.4 °F 14.3 °F 12.2 °F 74% 29.77 in 10.0 mi SSW 3.5 mph - N/A   Clear
4:15 AM 17.6 °F - 12.2 °F 79% 29.77 in 10.0 mi Calm Calm - N/A   Clear
4:35 AM 15.8 °F - 12.2 °F 86% 29.76 in 10.0 mi Calm Calm - N/A   Clear
4:55 AM 17.6 °F 12.3 °F 12.2 °F 79% 29.76 in 10.0 mi SSW 3.5 mph - N/A   Clear
5:16 AM 17.6 °F 12.3 °F 12.2 °F 79% 29.75 in 10.0 mi South 3.5 mph - N/A   Clear
5:35 AM 17.6 °F 10.7 °F 12.2 °F 79% 29.75 in 10.0 mi South 4.6 mph - N/A   Clear
5:55 AM 17.6 °F 10.7 °F 12.2 °F 79% 29.74 in 10.0 mi South 4.6 mph - N/A   Clear
6:16 AM 17.6 °F 10.7 °F 12.2 °F 79% 29.74 in 10.0 mi SSW 4.6 mph - N/A   Clear
6:36 AM 17.6 °F 10.7 °F 12.2 °F 79% 29.73 in 10.0 mi SSW 4.6 mph - N/A   Clear
6:55 AM 15.8 °F 10.2 °F 12.2 °F 86% 29.73 in 10.0 mi SSW 3.5 mph - N/A   Clear
7:15 AM 15.8 °F 8.6 °F 12.2 °F 86% 29.73 in 10.0 mi South 4.6 mph - N/A   Clear
7:35 AM 15.8 °F 10.2 °F 12.2 °F 86% 29.72 in 10.0 mi South 3.5 mph - N/A   Clear
7:56 AM 14.0 °F 6.5 °F 10.4 °F 86% 29.72 in 10.0 mi South 4.6 mph - N/A   Clear
8:15 AM 17.6 °F 10.7 °F 14.0 °F 86% 29.71 in 10.0 mi SSW 4.6 mph - N/A   Clear
8:35 AM 19.4 °F 12.8 °F 14.0 °F 80% 29.71 in 10.0 mi SSW 4.6 mph - N/A   Clear
8:55 AM 23.0 °F 14.7 °F 15.8 °F 74% 29.71 in 10.0 mi SSW 6.9 mph - N/A   Clear
9:15 AM 24.8 °F 16.9 °F 15.8 °F 69% 29.70 in 10.0 mi SSW 6.9 mph - N/A   Clear
9:36 AM 26.6 °F 19.1 °F 15.8 °F 64% 29.70 in 10.0 mi SW 6.9 mph - N/A   Clear
9:55 AM 28.4 °F 20.4 °F 15.8 °F 59% 29.68 in 10.0 mi SSW 8.1 mph - N/A   Clear
10:15 AM 30.2 °F 21.3 °F 15.8 °F 55% 29.68 in 10.0 mi South 10.4 mph - N/A   Clear
10:35 AM 32.0 °F 24.8 °F 15.8 °F 51% 29.67 in 10.0 mi SSW 8.1 mph - N/A   Clear
10:56 AM 33.8 °F 28.6 °F 15.8 °F 48% 29.65 in 10.0 mi South 5.8 mph - N/A   Clear
11:16 AM 35.6 °F 29.9 °F 17.6 °F 48% 29.64 in 10.0 mi SSW 6.9 mph - N/A   Clear
11:35 AM 37.4 °F 32.1 °F 17.6 °F 45% 29.63 in 10.0 mi SSW 6.9 mph - N/A   Clear
11:55 AM 39.2 °F 34.2 °F 17.6 °F 42% 29.62 in 10.0 mi SSW 6.9 mph - N/A   Clear
12:15 PM 42.8 °F 41.1 °F 15.8 °F 34% 29.61 in 10.0 mi SSW 3.5 mph - N/A   Clear
12:36 PM 44.6 °F 42.2 °F 15.8 °F 31% 29.59 in 10.0 mi SSW 4.6 mph - N/A   Clear
12:55 PM 46.4 °F 42.9 °F 15.8 °F 29% 29.58 in 10.0 mi SW 6.9 mph - N/A   Clear
1:15 PM 46.4 °F 43.5 °F 15.8 °F 29% 29.57 in 10.0 mi South 5.8 mph - N/A   Clear
1:35 PM 46.4 °F 44.3 °F 15.8 °F 29% 29.55 in 10.0 mi SSW 4.6 mph - N/A   Clear
1:55 PM 48.2 °F - 15.8 °F 27% 29.55 in 10.0 mi South 8.1 mph - N/A   Clear
2:16 PM 48.2 °F - 15.8 °F 27% 29.54 in 10.0 mi SSW 6.9 mph - N/A   Clear
2:36 PM 48.2 °F - 15.8 °F 27% 29.53 in 10.0 mi South 5.8 mph - N/A   Clear
2:55 PM 48.2 °F - 17.6 °F 30% 29.53 in 10.0 mi South 6.9 mph - N/A   Clear
3:16 PM 48.2 °F - 17.6 °F 30% 29.53 in 10.0 mi SSW 6.9 mph - N/A   Clear
3:35 PM 48.2 °F - 17.6 °F 30% 29.52 in 10.0 mi Calm Calm - N/A   Clear
3:55 PM 48.2 °F - 15.8 °F 27% 29.52 in 10.0 mi SSW 5.8 mph - N/A   Clear
4:15 PM 48.2 °F - 15.8 °F 27% 29.51 in 10.0 mi SSW 5.8 mph - N/A   Clear
4:35 PM 48.2 °F - 15.8 °F 27% 29.50 in 10.0 mi South 4.6 mph - N/A   Clear
4:55 PM 46.4 °F 43.5 °F 17.6 °F 32% 29.49 in 10.0 mi South 5.8 mph - N/A   Clear
5:16 PM 44.6 °F 40.7 °F 17.6 °F 34% 29.49 in 10.0 mi South 6.9 mph - N/A   Clear
5:36 PM 42.8 °F 38.6 °F 17.6 °F 36% 29.48 in 10.0 mi South 6.9 mph - N/A   Clear
5:56 PM 42.8 °F 39.3 °F 17.6 °F 36% 29.48 in 10.0 mi South 5.8 mph - N/A   Clear
6:16 PM 37.4 °F 32.8 °F 21.2 °F 52% 29.49 in 10.0 mi SSE 5.8 mph - N/A   Clear
6:35 PM 35.6 °F 32.8 °F 21.2 °F 56% 29.49 in 10.0 mi SSE 3.5 mph - N/A   Clear
6:55 PM 37.4 °F 32.8 °F 21.2 °F 52% 29.50 in 10.0 mi South 5.8 mph - N/A   Clear
7:16 PM 37.4 °F - 21.2 °F 52% 29.51 in 10.0 mi Calm Calm - N/A   Clear
7:36 PM 37.4 °F - 21.2 °F 52% 29.51 in 10.0 mi Calm Calm - N/A   Clear
7:56 PM 37.4 °F 34.9 °F 21.2 °F 52% 29.50 in 10.0 mi SW 3.5 mph - N/A   Clear
8:16 PM 37.4 °F - 23.0 °F 56% 29.49 in 10.0 mi Calm Calm - N/A   Clear
8:36 PM 35.6 °F - 23.0 °F 60% 29.50 in 10.0 mi Calm Calm - N/A   Clear
8:55 PM 35.6 °F - 24.8 °F 65% 29.50 in 10.0 mi Calm Calm - N/A   Clear
9:15 PM 37.4 °F 33.8 °F 24.8 °F 60% 29.50 in 10.0 mi WSW 4.6 mph - N/A   Scattered Clouds
9:35 PM 37.4 °F 32.1 °F 24.8 °F 60% 29.50 in 10.0 mi West 6.9 mph - N/A   Scattered Clouds
9:55 PM 37.4 °F 32.1 °F 24.8 °F 60% 29.51 in 10.0 mi West 6.9 mph - N/A   Overcast
10:15 PM 37.4 °F 32.8 °F 24.8 °F 60% 29.51 in 10.0 mi West 5.8 mph - N/A   Scattered Clouds
10:35 PM 37.4 °F 33.8 °F 24.8 °F 60% 29.51 in 10.0 mi West 4.6 mph - N/A   Mostly Cloudy
10:55 PM 37.4 °F 32.1 °F 26.6 °F 65% 29.51 in 10.0 mi West 6.9 mph - N/A   Overcast
11:16 PM 37.4 °F 32.8 °F 26.6 °F 65% 29.51 in 10.0 mi WSW 5.8 mph - N/A   Overcast
11:36 PM 37.4 °F 33.8 °F 26.6 °F 65% 29.51 in 10.0 mi West 4.6 mph - N/A   Overcast
11:55 PM 37.4 °F 33.8 °F 26.6 °F 65% 29.51 in 10.0 mi WSW 4.6 mph - N/A   Mostly Cloudy